When you browse on this site, cookies collect data to enhance your experience and personalize the content and advertising you see.
Visit our Privacy Policy to learn more. By continuing to use the site, you agree to this use of cookies and data.
  • en Suisse
  • Liste des pays
  • À 7 jours
  • Température de l'eau
  • Carte satellitaire
  • Carte météo
  • Widgets météo
  • user-avatar
    Se connecter

    Météo par heure à Volklingen

    Ce jour, 26 Mai, Dimanche

    Heure Température Précipitation Vent Pression Humidité
    00:00 +11°C° 0 mm 1 m/s 741 mmHg 89%
    01:00 +10°C° 0 mm 1 m/s 741 mmHg 89%
    02:00 +10°C° 0 mm 1 m/s 741 mmHg 90%
    03:00 +8°C° 0 mm 0 m/s 741 mmHg 90%
    04:00 +10°C° 0 mm 1 m/s 741 mmHg 89%
    05:00 +12°C° 0 mm 1 m/s 741 mmHg 87%
    06:00 +13°C° 0 mm 1 m/s 741 mmHg 87%
    07:00 +15°C° 0 mm 2 m/s 741 mmHg 79%
    08:00 +16°C° 0 mm 2 m/s 741 mmHg 71%
    09:00 +18°C° 0 mm 2 m/s 741 mmHg 63%
    10:00 +19°C° 0 mm 3 m/s 740 mmHg 62%
    11:00 +19°C° 0 mm 3 m/s 740 mmHg 60%
    12:00 +20°C° 0 mm 3 m/s 740 mmHg 59%
    13:00 +20°C° 0 mm 3 m/s 740 mmHg 60%
    14:00 +20°C° 0 mm 3 m/s 739 mmHg 61%
    15:00 +20°C° 0 mm 3 m/s 739 mmHg 62%
    16:00 +19°C° 0 mm 3 m/s 739 mmHg 67%
    17:00 +19°C° 0 mm 3 m/s 738 mmHg 72%
    18:00 +18°C° 0 mm 3 m/s 738 mmHg 78%
    19:00 +16°C° 0 mm 2 m/s 738 mmHg 82%
    20:00 +15°C° 0 mm 2 m/s 738 mmHg 87%
    21:00 +14°C° 0 mm 2 m/s 738 mmHg 91%
    22:00 +13°C° 0 mm 2 m/s 738 mmHg 92%
    23:00 +13°C° 0 mm 2 m/s 738 mmHg 94%

    Demain, 27 Mai, Lundi

    Heure Température Précipitation Vent Pression Humidité
    00:00 +12°C° 0 mm 2 m/s 738 mmHg 95%
    01:00 +12°C° 0 mm 2 m/s 737 mmHg 95%
    02:00 +10°C° 0 mm 2 m/s 737 mmHg 96%
    03:00 +10°C° 0 mm 2 m/s 737 mmHg 96%
    04:00 +12°C° 0 mm 2 m/s 737 mmHg 95%
    05:00 +12°C° 0 mm 2 m/s 737 mmHg 93%
    06:00 +12°C° 0 mm 3 m/s 736 mmHg 92%
    07:00 +13°C° 0 mm 3 m/s 737 mmHg 91%
    08:00 +13°C° 0 mm 3 m/s 737 mmHg 90%
    09:00 +14°C° 0 mm 3 m/s 737 mmHg 89%
    10:00 +14°C° 0.1 mm 3 m/s 736 mmHg 88%
    11:00 +14°C° 0.1 mm 3 m/s 736 mmHg 88%
    12:00 +14°C° 0.1 mm 3 m/s 736 mmHg 88%
    13:00 +16°C° 0 mm 3 m/s 736 mmHg 87%
    14:00 +16°C° 0 mm 3 m/s 735 mmHg 87%
    15:00 +16°C° 0 mm 2 m/s 735 mmHg 86%
    16:00 +16°C° 0 mm 2 m/s 735 mmHg 87%
    17:00 +16°C° 0 mm 2 m/s 735 mmHg 88%
    18:00 +16°C° 0 mm 2 m/s 735 mmHg 88%
    19:00 +15°C° 0.1 mm 2 m/s 735 mmHg 89%
    20:00 +14°C° 0.1 mm 2 m/s 735 mmHg 90%
    21:00 +14°C° 0.1 mm 2 m/s 735 mmHg 91%
    22:00 +13°C° 0 mm 2 m/s 735 mmHg 92%
    23:00 +12°C° 0 mm 2 m/s 735 mmHg 92%

    Après-demain, 28 Mai, Mardi

    Heure Température Précipitation Vent Pression Humidité
    00:00 +12°C° 0 mm 2 m/s 735 mmHg 92%
    01:00 +10°C° 0 mm 2 m/s 735 mmHg 92%
    02:00 +10°C° 0 mm 2 m/s 735 mmHg 93%
    03:00 +9°C° 0 mm 2 m/s 735 mmHg 93%
    04:00 +9°C° 0 mm 2 m/s 735 mmHg 92%
    05:00 +10°C° 0 mm 3 m/s 735 mmHg 91%
    06:00 +10°C° 0 mm 3 m/s 735 mmHg 90%
    07:00 +11°C° 0.1 mm 4 m/s 735 mmHg 87%
    08:00 +12°C° 0.1 mm 4 m/s 735 mmHg 83%
    09:00 +13°C° 0.1 mm 4 m/s 736 mmHg 80%
    10:00 +14°C° 0.5 mm 4 m/s 736 mmHg 76%
    11:00 +15°C° 0.5 mm 4 m/s 735 mmHg 72%
    12:00 +15°C° 0.5 mm 4 m/s 735 mmHg 68%
    13:00 +15°C° 0.4 mm 4 m/s 735 mmHg 68%
    14:00 +17°C° 0.4 mm 4 m/s 736 mmHg 69%
    15:00 +17°C° 0.4 mm 4 m/s 736 mmHg 69%
    16:00 +15°C° 0.4 mm 4 m/s 736 mmHg 75%
    17:00 +14°C° 0.4 mm 3 m/s 736 mmHg 80%
    18:00 +13°C° 0.4 mm 3 m/s 736 mmHg 85%
    19:00 +13°C° 0.5 mm 2 m/s 737 mmHg 87%
    20:00 +12°C° 0.5 mm 2 m/s 738 mmHg 89%
    21:00 +10°C° 0.5 mm 2 m/s 738 mmHg 92%
    22:00 +9°C° 0 mm 2 m/s 739 mmHg 92%
    23:00 +9°C° 0 mm 2 m/s 739 mmHg 93%

    29 Mai, Mercredi

    Heure Température Précipitation Vent Pression Humidité
    00:00 +9°C° 0 mm 1 m/s 739 mmHg 94%
    01:00 +9°C° 0 mm 1 m/s 739 mmHg 94%
    02:00 +8°C° 0 mm 1 m/s 740 mmHg 94%
    03:00 +8°C° 0 mm 1 m/s 740 mmHg 94%
    04:00 +9°C° 0 mm 1 m/s 740 mmHg 94%
    05:00 +9°C° 0 mm 1 m/s 741 mmHg 93%
    06:00 +10°C° 0 mm 1 m/s 741 mmHg 92%
    07:00 +12°C° 0 mm 2 m/s 741 mmHg 85%
    08:00 +14°C° 0 mm 2 m/s 742 mmHg 79%
    09:00 +15°C° 0 mm 2 m/s 742 mmHg 72%
    10:00 +16°C° 0.1 mm 3 m/s 742 mmHg 70%
    11:00 +17°C° 0.1 mm 4 m/s 742 mmHg 67%
    12:00 +18°C° 0.1 mm 4 m/s 742 mmHg 65%
    13:00 +17°C° 0 mm 5 m/s 742 mmHg 64%
    14:00 +17°C° 0 mm 5 m/s 742 mmHg 64%
    15:00 +17°C° 0 mm 5 m/s 741 mmHg 63%
    16:00 +16°C° 0 mm 5 m/s 741 mmHg 68%
    17:00 +15°C° 0 mm 4 m/s 741 mmHg 73%
    18:00 +14°C° 0 mm 4 m/s 741 mmHg 78%
    19:00 +13°C° 0.2 mm 4 m/s 742 mmHg 83%
    20:00 +12°C° 0.2 mm 4 m/s 742 mmHg 88%
    21:00 +11°C° 0.2 mm 3 m/s 742 mmHg 93%
    22:00 +11°C° 0.6 mm 4 m/s 742 mmHg 94%
    23:00 +11°C° 0.6 mm 4 m/s 742 mmHg 95%

    30 Mai, Jeudi

    Heure Température Précipitation Vent Pression Humidité
    00:00 +11°C° 0.6 mm 4 m/s 742 mmHg 96%
    01:00 +11°C° 0.2 mm 4 m/s 742 mmHg 97%
    02:00 +12°C° 0.2 mm 4 m/s 742 mmHg 97%
    03:00 +12°C° 0.2 mm 4 m/s 741 mmHg 97%
    04:00 +12°C° 0.2 mm 4 m/s 742 mmHg 97%
    05:00 +13°C° 0.2 mm 4 m/s 742 mmHg 97%
    06:00 +13°C° 0.2 mm 4 m/s 742 mmHg 96%
    07:00 +13°C° 0.1 mm 4 m/s 743 mmHg 96%
    08:00 +13°C° 0.1 mm 4 m/s 743 mmHg 95%
    09:00 +13°C° 0.1 mm 4 m/s 743 mmHg 94%
    10:00 +14°C° 0.1 mm 4 m/s 743 mmHg 92%
    11:00 +15°C° 0.1 mm 5 m/s 743 mmHg 90%
    12:00 +15°C° 0.1 mm 5 m/s 743 mmHg 88%
    13:00 +15°C° 0.1 mm 4 m/s 743 mmHg 88%
    14:00 +15°C° 0.1 mm 4 m/s 743 mmHg 88%
    15:00 +17°C° 0.1 mm 4 m/s 743 mmHg 88%
    16:00 +17°C° 0.2 mm 4 m/s 743 mmHg 89%
    17:00 +17°C° 0.2 mm 4 m/s 743 mmHg 90%
    18:00 +17°C° 0.2 mm 3 m/s 743 mmHg 91%
    19:00 +15°C° 0.2 mm 4 m/s 743 mmHg 93%
    20:00 +15°C° 0.2 mm 4 m/s 743 mmHg 94%
    21:00 +14°C° 0.2 mm 5 m/s 743 mmHg 95%
    22:00 +14°C° 0.6 mm 5 m/s 743 mmHg 96%
    23:00 +14°C° 0.6 mm 5 m/s 743 mmHg 96%

    31 Mai, Vendredi

    Heure Température Précipitation Vent Pression Humidité
    00:00 +14°C° 0.6 mm 5 m/s 743 mmHg 96%
    01:00 +14°C° 1.1 mm 4 m/s 743 mmHg 96%
    02:00 +14°C° 1.1 mm 4 m/s 743 mmHg 95%
    03:00 +13°C° 1.1 mm 4 m/s 743 mmHg 95%
    04:00 +14°C° 0 mm 4 m/s 744 mmHg 93%
    05:00 +14°C° 0 mm 4 m/s 744 mmHg 92%
    06:00 +14°C° 0 mm 4 m/s 745 mmHg 91%
    07:00 +13°C° 0 mm 4 m/s 746 mmHg 86%
    08:00 +13°C° 0 mm 4 m/s 746 mmHg 81%
    09:00 +13°C° 0 mm 4 m/s 747 mmHg 77%
    10:00 +14°C° 0 mm 4 m/s 748 mmHg 69%
    11:00 +16°C° 0 mm 3 m/s 748 mmHg 61%
    12:00 +18°C° 0 mm 3 m/s 748 mmHg 53%
    13:00 +18°C° 0 mm 3 m/s 749 mmHg 52%
    14:00 +18°C° 0 mm 3 m/s 749 mmHg 51%
    15:00 +18°C° 0 mm 3 m/s 749 mmHg 51%
    16:00 +18°C° 0 mm 3 m/s 749 mmHg 55%
    17:00 +17°C° 0 mm 2 m/s 749 mmHg 60%
    18:00 +16°C° 0 mm 2 m/s 749 mmHg 65%
    19:00 +14°C° 0 mm 2 m/s 750 mmHg 67%
    20:00 +12°C° 0 mm 2 m/s 750 mmHg 68%
    21:00 +9°C° 0 mm 2 m/s 751 mmHg 69%
    22:00 +9°C° 0 mm 2 m/s 751 mmHg 71%
    23:00 +8°C° 0 mm 2 m/s 751 mmHg 72%
    Voir plus